DW5210 Weather Reports


time (UTC)temp
C
wind
direction
speed
KPH
gust
KPH
rain 1hr
cm
rain 24hr
cm
rain mn
cm
humidity
%
barometer
mb
20260506050505 7 23 4.8 16.1 0.00 0.00 0.00 81 1011.1
20260506043505 8 27 1.6 16.1 0.00 0.00 0.00 81 1011.1
20260506043005 8 27 3.2 16.1 0.00 0.00 0.00 81 1011.1
20260506033505 8 34 4.8 12.9 0.00 0.00 0.00 81 1011.0
20260506033005 8 35 6.4 11.3 0.00 0.00 0.00 81 1011.1
20260506030504 9 35 3.2 11.3 0.00 0.00 0.00 81 1011.1
20260506030005 9 35 8.0 11.3 0.00 0.00 0.00 81 1011.1
20260506023505 9 39 0.0 12.9 0.00 0.00 0.00 82 1011.0
20260506023005 9 39 3.2 12.9 0.00 0.00 0.00 81 1011.0
20260506020005 10 41 4.8 9.7 0.00 0.00 0.00 81 1011.1
20260506013005 10 42 1.6 9.7 0.00 0.00 0.00 79 1011.1
20260506010005 10 42 1.6 11.3 0.00 0.00 0.00 77 1011.1
20260506003005 10 40 3.2 11.3 0.00 0.00 0.00 77 1011.2
20260506000505 11 53 3.2 19.3 0.00 0.00 0.00 77 1011.2
20260505233005 11 68 3.2 16.1 0.00 0.00 0.00 77 1011.1
20260505230006 11 41 3.2 9.7 0.00 0.00 0.00 77 1011.1
20260505223505 11 39 0.0 4.8 0.00 0.00 0.00 77 1011.0
20260505223005 12 39 0.0 11.3 0.00 0.00 0.00 77 1011.0
20260505220504 12 39 3.2 11.3 0.00 0.00 0.00 75 1010.8
20260505213505 12 43 4.8 16.1 0.00 0.00 0.00 73 1010.8
20260505213005 12 30 6.4 16.1 0.00 0.00 0.00 74 1010.7
20260505203505 13 22 4.8 16.1 0.00 0.00 0.00 74 1010.5
20260505200505 13 20 4.8 14.5 0.00 0.00 0.00 73 1010.4
20260505193006 13 19 0.0 11.3 0.00 0.00 0.00 72 1010.0
20260505190006 13 20 4.8 11.3 0.00 0.00 0.00 71 1009.9
20260505183505 14 22 6.4 19.3 0.00 0.00 0.00 70 1009.8
20260505180005 14 18 0.0 0.0 0.00 0.00 0.00 73 1009.7
20260505173504 14 18 0.0 4.8 0.00 0.00 0.00 72 1009.8
20260505173005 14 18 1.6 4.8 0.00 0.00 0.00 72 1009.9
20260505170005 14 18 1.6 9.7 0.00 0.00 0.00 71 1010.0
20260505160504 15 20 4.8 14.5 0.00 0.00 0.00 67 1010.0
20260505153005 15 18 1.6 8.0 0.00 0.00 0.00 68 1010.0
20260505150505 15 18 4.8 11.3 0.00 0.00 0.00 68 1010.1
20260505140505 15 16 4.8 11.3 0.00 0.00 0.00 68 1010.2
20260505123505 15 10 3.2 11.3 0.00 0.00 0.00 69 1010.6
20260505120504 15 5 4.8 16.1 0.00 0.00 0.00 71 1010.6
20260505113504 14 27 8.0 14.5 0.00 0.00 0.00 73 1010.8
20260505113005 13 45 1.6 14.5 0.00 0.00 0.00 74 1010.8
20260505110504 13 56 1.6 14.5 0.00 0.00 0.00 75 1011.0
20260505100505 12 17 1.6 11.3 0.00 0.00 0.00 79 1011.2
20260505100005 12 16 3.2 8.0 0.00 0.00 0.00 78 1011.2
20260505083005 12 21 1.6 11.3 0.00 0.00 0.00 80 1011.6
20260505080005 12 10 4.8 19.3 0.00 0.00 0.00 81 1011.6
20260505073505 12 24 8.0 19.3 0.00 0.00 0.00 81 1011.5
20260505073004 12 5 6.4 19.3 0.00 0.00 0.00 82 1011.5
20260505070504 12 27 8.0 14.5 0.00 0.00 0.00 83 1011.6
20260505063504 11 35 1.6 8.0 0.00 0.00 0.00 86 1011.7
20260505063004 11 35 3.2 4.8 0.00 0.00 0.00 87 1011.7
20260505060504 11 35 1.6 4.8 0.00 0.00 0.00 88 1011.6
20260505053504 10 35 3.2 4.8 0.00 0.00 0.00 89 1011.7